Measurements were made at the meteorological tower in Juelich (50.90 N / 6.40 E) at an altitude of 100 m
"Instrument: Fast Greenhouse Gas Analyzer (FGGA), Los Gatos Inc."
Responsible PI: Dr. Marc von Hobe; Forschungszentrum Juelich GmbH; IEK-7; email: m.von.hobe@fz-juelich.de
NaN or negative numbers are fill values (i.e. no valid measurements were made at that time)
Uncertainties are given as the 1-sigma standard deviation over each 10 minute intervals. In each interval ~600 individual measurements are carried out so that the standard error of the mean is approximately sigma/sqrt(600).
time_utc,CO2_ppm,stdev_CO2_ppm,CH4_ppm,stdev_CH4_ppm,H2O_ppm,stdev_H2O_ppm
"2017-01-01 00:05:00 000",446.946,1.86025,2.24074,0.0129721,4192.76,253.442
"2017-01-01 00:15:00 000",453.004,3.03199,2.28057,0.0285307,4240.22,266.340
"2017-01-01 00:25:00 000",461.102,9.62624,2.37858,0.122767,4138.15,282.351
"2017-01-01 00:35:00 000",455.348,11.1512,2.34687,0.0718887,4387.24,299.067
"2017-01-01 00:45:00 000",451.596,4.42454,2.33780,0.0360683,4616.88,271.203
"2017-01-01 00:55:00 000",454.985,1.92330,2.36994,0.0101707,4499.25,249.840
"2017-01-01 01:05:00 000",445.881,2.91209,2.30370,0.0398078,4588.76,251.625
"2017-01-01 01:15:00 000",443.290,2.96740,2.27724,0.0229021,4719.77,239.807
"2017-01-01 01:25:00 000",445.818,2.33563,2.29845,0.0196714,4620.99,228.008
"2017-01-01 01:35:00 000",446.476,1.89750,2.30661,0.0175838,4607.28,245.282
"2017-01-01 01:45:00 000",450.266,1.61751,2.34613,0.00969192,4478.10,222.134
"2017-01-01 01:55:00 000",452.311,1.18416,2.33370,0.00643305,4270.30,236.637
"2017-01-01 02:05:00 000",451.306,1.15522,2.33672,0.0117311,4101.45,239.733
"2017-01-01 02:15:00 000",450.304,1.02745,2.33940,0.00834143,4074.25,242.798
"2017-01-01 02:25:00 000",450.590,1.04169,2.33934,0.0108992,4071.48,263.652
"2017-01-01 02:35:00 000",450.173,1.09729,2.33659,0.0227876,4075.45,277.604
"2017-01-01 02:45:00 000",449.821,1.83761,2.35151,0.0155650,4110.00,288.913
"2017-01-01 02:55:00 000",445.096,1.43006,2.28493,0.0212765,4211.58,292.201
"2017-01-01 03:05:00 000",445.208,1.34276,2.26243,0.0260244,4227.86,293.530
"2017-01-01 03:15:00 000",445.229,1.03688,2.21128,0.0114014,4173.96,298.692
"2017-01-01 03:25:00 000",444.354,1.09310,2.20584,0.00833759,4111.16,299.291
"2017-01-01 03:35:00 000",443.124,1.22579,2.19935,0.00684524,4164.37,297.787
"2017-01-01 03:45:00 000",440.957,0.964536,2.18886,0.00725547,4173.00,303.456
"2017-01-01 03:55:00 000",441.254,1.18029,2.18651,0.00824814,4119.04,296.742
"2017-01-01 04:05:00 000",443.044,1.26556,2.19931,0.00812767,4013.40,278.737
"2017-01-01 04:15:00 000",443.652,1.17241,2.20278,0.00980497,4265.56,283.268
"2017-01-01 04:25:00 000",443.149,1.19322,2.17774,0.0120862,4464.41,276.657
"2017-01-01 04:35:00 000",443.559,2.19642,2.16330,0.00809086,4294.10,297.666
"2017-01-01 04:45:00 000",442.326,1.32555,2.16305,0.00655740,4411.26,301.207
"2017-01-01 04:55:00 000",442.902,1.31690,2.16452,0.00607445,4495.96,271.657
"2017-01-01 05:05:00 000",441.428,2.18794,2.16899,0.00781527,4627.23,257.196
"2017-01-01 05:15:00 000",439.420,1.51175,2.16169,0.0131045,4848.12,235.572
"2017-01-01 05:25:00 000",436.345,3.56026,2.13908,0.0283699,5001.74,241.637
"2017-01-01 05:35:00 000",435.582,2.58278,2.14383,0.0181091,5110.06,223.757
"2017-01-01 05:45:00 000",433.551,2.61961,2.12086,0.0197226,5080.00,234.269
"2017-01-01 05:55:00 000",432.813,2.01587,2.12189,0.0163721,5031.49,203.738
"2017-01-01 06:05:00 000",432.816,1.71153,2.11571,0.0159183,5032.93,225.506
"2017-01-01 06:15:00 000",430.688,1.97462,2.10840,0.0193777,5097.04,251.783
"2017-01-01 06:25:00 000",430.225,1.84336,2.10940,0.0125653,5047.88,238.717
"2017-01-01 06:35:00 000",430.770,3.89996,2.11044,0.0196579,4852.89,239.671
"2017-01-01 06:45:00 000",426.147,1.76282,2.08001,0.0118337,4846.23,267.923
"2017-01-01 06:55:00 000",428.982,2.55398,2.08828,0.0151087,4544.57,259.589
"2017-01-01 07:05:00 000",427.335,3.64822,2.07386,0.0200116,4284.17,260.969
"2017-01-01 07:15:00 000",429.695,3.69213,2.08865,0.0194077,4169.34,254.014
"2017-01-01 07:25:00 000",429.274,4.55406,2.08948,0.0280092,4179.74,228.030
"2017-01-01 07:35:00 000",426.514,2.68037,2.06856,0.0157322,4170.08,235.904
"2017-01-01 07:45:00 000",428.133,2.09642,2.07562,0.0101513,4187.17,226.492
"2017-01-01 07:55:00 000",427.529,2.39980,2.07001,0.0111425,4114.40,230.362
"2017-01-01 08:05:00 000",432.207,1.71731,2.09393,0.00742519,4061.32,204.554
"2017-01-01 08:15:00 000",431.457,2.15140,2.08942,0.0108316,4169.15,225.417
"2017-01-01 08:25:00 000",429.989,1.58491,2.07581,0.00753232,4170.15,221.583
"2017-01-01 08:35:00 000",432.269,1.81342,2.08363,0.00793173,4064.30,216.005
"2017-01-01 08:45:00 000",433.150,1.41166,2.08939,0.00632811,4070.87,221.719
"2017-01-01 08:55:00 000",434.434,1.82193,2.09100,0.00664941,4035.59,213.906
"2017-01-01 09:05:00 000",434.140,1.73862,2.08559,0.00822538,4038.36,219.978
"2017-01-01 09:15:00 000",432.530,1.95686,2.08081,0.00836909,3951.64,232.535
"2017-01-01 09:25:00 000",434.483,2.37682,2.08812,0.0101632,3915.80,249.431
"2017-01-01 09:35:00 000",436.583,1.57385,2.09890,0.00667117,3907.10,241.161
"2017-01-01 09:45:00 000",437.424,1.63753,2.10486,0.00633595,3965.08,235.918
"2017-01-01 09:55:00 000",435.958,1.79533,2.10031,0.00786872,3958.72,270.023
"2017-01-01 10:05:00 000",435.674,1.44848,2.10219,0.00712479,4059.37,261.992
"2017-01-01 10:15:00 000",435.735,1.47458,2.10088,0.00752801,4123.29,279.147
"2017-01-01 10:25:00 000",436.040,1.11586,2.10080,0.00594449,4111.97,278.231
"2017-01-01 10:35:00 000",435.845,1.06042,2.10301,0.00642292,4184.72,281.399
"2017-01-01 10:45:00 000",435.180,1.16046,2.10751,0.00642245,4195.65,291.366
"2017-01-01 10:55:00 000",435.503,1.08726,2.10979,0.00630256,4318.12,280.696
"2017-01-01 11:05:00 000",433.898,1.15183,2.10862,0.00658937,4311.16,283.644
"2017-01-01 11:15:00 000",433.002,1.18139,2.10094,0.00622434,4365.14,303.378
"2017-01-01 11:25:00 000",432.336,1.09335,2.09633,0.00687955,4344.27,309.311
"2017-01-01 11:35:00 000",431.998,1.16763,2.09750,0.00701368,4356.07,281.763
"2017-01-01 11:45:00 000",432.018,1.15125,2.10042,0.00790723,4349.75,270.974
"2017-01-01 11:55:00 000",433.081,1.18541,2.10798,0.00552472,4298.00,221.778
"2017-01-01 12:05:00 000",434.481,1.19851,2.11228,0.00580831,4388.80,175.759
"2017-01-01 12:15:00 000",436.344,1.58851,2.13527,0.0164366,4420.76,129.004
"2017-01-01 12:25:00 000",439.176,1.92846,2.21401,0.0313014,4423.41,142.443
"2017-01-01 12:35:00 000",439.703,1.29574,2.22788,0.0153536,4418.84,128.135
"2017-01-01 12:45:00 000",440.254,1.18959,2.21540,0.00672180,4466.92,125.817
"2017-01-01 12:55:00 000",440.578,1.10565,2.19822,0.0112546,4592.78,115.840
"2017-01-01 13:05:00 000",440.561,1.39519,2.21721,0.0201658,4626.80,116.791
"2017-01-01 13:15:00 000",439.139,1.20182,2.21676,0.0105905,4507.27,114.006
"2017-01-01 13:25:00 000",436.966,1.90880,2.20926,0.0253616,4557.21,123.611
"2017-01-01 13:35:00 000",435.957,1.80458,2.18432,0.0261524,4615.34,121.468
"2017-01-01 13:45:00 000",432.867,3.12484,2.13702,0.0193701,4718.75,116.315
"2017-01-01 13:55:00 000",424.546,2.59075,2.17048,0.0446692,4725.48,126.886
"2017-01-01 14:05:00 000",421.723,1.04153,2.09318,0.0476874,4729.44,129.333
"2017-01-01 14:15:00 000",421.586,0.932121,2.08125,0.0232097,4801.50,147.925
"2017-01-01 14:25:00 000",421.896,0.970597,2.08823,0.0171072,4853.26,139.038
"2017-01-01 14:35:00 000",421.194,1.20578,2.08114,0.0210375,4936.01,165.927
"2017-01-01 14:45:00 000",420.726,0.966730,2.06496,0.00751181,5134.10,144.863
"2017-01-01 14:55:00 000",420.382,1.04366,2.13677,0.0436015,5201.41,151.234
"2017-01-01 15:05:00 000",421.301,0.899251,2.10985,0.0270642,5274.43,138.793
"2017-01-01 15:15:00 000",421.151,1.01600,2.06033,0.00725437,5296.89,139.512
"2017-01-01 15:25:00 000",421.646,0.907977,2.06068,0.00572906,5280.61,155.939
"2017-01-01 15:35:00 000",421.548,1.04963,2.05699,0.00527710,5195.51,173.702
"2017-01-01 15:45:00 000",421.498,1.37143,2.05878,0.00473082,5124.45,179.053
"2017-01-01 15:55:00 000",422.137,1.06691,2.05999,0.00479823,5100.26,194.560
"2017-01-01 16:05:00 000",421.473,0.984346,2.06018,0.00528074,5038.43,187.183
"2017-01-01 16:15:00 000",421.884,0.931258,2.06350,0.00542291,4993.97,211.578
"2017-01-01 16:25:00 000",421.811,1.13604,2.06183,0.00508563,4953.87,214.378
"2017-01-01 16:35:00 000",423.074,0.955588,2.06266,0.00557128,4909.31,212.135
"2017-01-01 16:45:00 000",422.317,1.20983,2.06024,0.00574714,4929.15,234.745
"2017-01-01 16:55:00 000",423.612,1.63887,2.05513,0.00590109,4987.56,245.119
"2017-01-01 17:05:00 000",427.192,1.08054,2.05670,0.00638590,5083.63,280.690
"2017-01-01 17:15:00 000",430.243,1.55447,2.05734,0.00607868,5077.29,274.647
"2017-01-01 17:25:00 000",433.214,1.78739,2.05387,0.00636351,5211.33,266.374
"2017-01-01 17:35:00 000",431.061,1.64048,2.05134,0.00599032,5250.35,275.745
"2017-01-01 17:45:00 000",426.987,3.03085,2.05032,0.00701235,5376.06,268.311
"2017-01-01 17:55:00 000",423.762,1.98596,2.05088,0.00691780,5316.52,254.122
"2017-01-01 18:05:00 000",419.314,1.05465,2.03830,0.00724090,5316.15,242.552
"2017-01-01 18:15:00 000",421.584,1.54370,2.04416,0.0103095,5386.60,220.145
"2017-01-01 18:25:00 000",422.705,1.66240,2.05849,0.0126200,5388.51,210.028
"2017-01-01 18:35:00 000",424.987,2.44282,2.06858,0.0222734,5373.18,195.686
"2017-01-01 18:45:00 000",426.142,1.71665,2.07834,0.0198423,5398.76,167.365
"2017-01-01 18:55:00 000",425.981,1.50035,2.08619,0.0123314,5368.36,170.253
"2017-01-01 19:05:00 000",426.269,1.32329,2.07888,0.00862391,5432.00,158.478
"2017-01-01 19:15:00 000",425.651,1.10624,2.07100,0.00679205,5485.81,141.712
"2017-01-01 19:25:00 000",426.463,1.21850,2.07237,0.00750044,5441.65,139.380
"2017-01-01 19:35:00 000",424.955,1.10913,2.06328,0.00698881,5471.00,139.095
"2017-01-01 19:45:00 000",425.455,1.15941,2.06529,0.00642035,5567.91,130.459
"2017-01-01 19:55:00 000",424.680,1.28047,2.06414,0.00650382,5587.47,127.745
"2017-01-01 20:05:00 000",426.242,1.12255,2.06425,0.00590628,5542.47,129.005
"2017-01-01 20:15:00 000",425.725,1.36690,2.06901,0.00741367,5601.11,142.871
"2017-01-01 20:25:00 000",424.215,1.61899,2.06325,0.00721888,5723.37,135.820
"2017-01-01 20:35:00 000",422.410,1.54239,2.05852,0.00786844,5860.79,127.801
"2017-01-01 20:45:00 000",420.543,1.44532,2.05565,0.00743602,5845.93,117.350
"2017-01-01 20:55:00 000",419.343,1.62787,2.04452,0.0100467,5866.88,113.709
"2017-01-01 21:05:00 000",419.096,1.67003,2.04332,0.0111219,5888.17,129.324
"2017-01-01 21:15:00 000",418.343,1.19005,2.05512,0.0174088,5912.89,118.441
"2017-01-01 21:25:00 000",417.953,1.29830,2.12305,0.0461233,5851.93,118.040
"2017-01-01 21:35:00 000",417.410,1.24073,2.18319,0.0496383,5870.11,129.114
"2017-01-01 21:45:00 000",416.400,1.07722,2.10594,0.0576783,5895.75,110.549
"2017-01-01 21:55:00 000",415.437,1.03053,2.12532,0.0752346,5902.57,120.829
"2017-01-01 22:05:00 000",415.059,0.970642,2.23079,0.0641124,5906.52,124.377
"2017-01-01 22:15:00 000",415.379,0.959234,2.05853,0.0481286,5811.99,125.039
"2017-01-01 22:25:00 000",415.898,0.998502,2.13272,0.0728016,5835.78,131.823
"2017-01-01 22:35:00 000",417.001,1.39410,2.11218,0.0681992,5861.25,127.587
"2017-01-01 22:45:00 000",416.638,1.07532,2.05827,0.0266380,5724.12,143.639
"2017-01-01 22:55:00 000",418.280,1.27620,2.02601,0.00701921,5717.26,131.071
"2017-01-01 23:05:00 000",419.670,0.961210,2.03931,0.00629784,5737.24,145.086
"2017-01-01 23:15:00 000",418.657,1.10475,2.03635,0.00508421,5846.60,124.607
"2017-01-01 23:25:00 000",417.470,1.10372,2.04587,0.0213298,5874.43,136.392
"2017-01-01 23:35:00 000",417.422,1.02828,2.05189,0.0153523,5885.60,136.579
"2017-01-01 23:45:00 000",416.656,0.984780,2.16662,0.0570837,5957.10,145.541
"2017-01-01 23:55:00 000",416.438,1.13152,2.24743,0.0607164,5993.97,138.040
"2017-01-02 00:05:00 000",415.800,1.01438,2.22843,0.0948641,6009.26,146.673
"2017-01-02 00:15:00 000",415.397,1.03383,2.04812,0.0335722,5986.12,165.144
"2017-01-02 00:25:00 000",415.964,0.938678,2.02689,0.00750193,5988.03,182.068
"2017-01-02 00:35:00 000",415.472,0.950516,2.03206,0.00880351,6023.24,198.896
"2017-01-02 00:45:00 000",415.539,1.12095,2.03982,0.0179407,6010.38,213.608
"2017-01-02 00:55:00 000",416.517,0.956018,2.05552,0.0185019,6014.01,216.006
"2017-01-02 01:05:00 000",416.244,0.945837,2.05522,0.0200315,5996.90,237.923
"2017-01-02 01:15:00 000",416.987,1.01684,2.06729,0.0205884,5997.17,231.577
"2017-01-02 01:25:00 000",417.078,0.911077,2.06912,0.0323003,5932.31,258.613
"2017-01-02 01:35:00 000",417.117,0.947108,2.08634,0.0374001,5929.45,265.984
"2017-01-02 01:45:00 000",417.808,0.996257,2.05818,0.0128968,5925.68,285.221
"2017-01-02 01:55:00 000",417.912,0.884081,2.05500,0.00944526,5846.71,289.464
"2017-01-02 02:05:00 000",418.880,1.00826,2.05002,0.00824914,5849.75,282.084
"2017-01-02 02:15:00 000",420.002,1.04936,2.05464,0.0111462,5821.98,294.600
"2017-01-02 02:25:00 000",420.397,0.901865,2.06077,0.0105255,5759.73,311.027
"2017-01-02 02:35:00 000",419.960,0.953688,2.05339,0.00762819,5743.59,306.961
"2017-01-02 02:45:00 000",420.393,0.991803,2.05369,0.00757675,5704.33,300.754
"2017-01-02 02:55:00 000",421.052,0.970755,2.06023,0.0107990,5740.02,309.973
"2017-01-02 03:05:00 000",421.808,0.883373,2.09546,0.0366491,5669.44,301.332
"2017-01-02 03:15:00 000",421.727,0.892318,2.06547,0.00691824,5698.18,297.926
"2017-01-02 03:25:00 000",422.189,0.935387,2.06617,0.00643527,5751.33,296.935
"2017-01-02 03:35:00 000",422.305,0.913860,2.07042,0.00741046,5676.91,299.717
"2017-01-02 03:45:00 000",422.343,0.967085,2.07499,0.00708002,5665.50,294.988
"2017-01-02 03:55:00 000",422.955,0.903371,2.07754,0.00703592,5714.73,292.527
"2017-01-02 04:05:00 000",423.368,0.964773,2.09654,0.0207904,5730.37,281.899
"2017-01-02 04:15:00 000",423.738,0.937243,2.19858,0.0382799,5761.41,279.648
"2017-01-02 04:25:00 000",423.925,0.928396,2.21676,0.0401426,5772.32,283.815
"2017-01-02 04:35:00 000",423.753,0.919189,2.16486,0.0717552,5877.58,257.520
"2017-01-02 04:45:00 000",423.973,0.943494,2.13007,0.0193389,5852.06,268.120
"2017-01-02 04:55:00 000",424.231,0.916391,2.15058,0.0342953,5798.45,269.501
"2017-01-02 05:05:00 000",424.339,0.930811,2.18044,0.0426737,5791.47,294.109
"2017-01-02 05:15:00 000",424.836,0.928439,2.18684,0.0433161,5805.08,277.238
"2017-01-02 05:25:00 000",425.090,0.910795,2.28201,0.0405816,5790.06,291.018
"2017-01-02 05:35:00 000",426.043,1.00737,2.30998,0.0317565,5892.23,259.698
"2017-01-02 05:45:00 000",426.450,1.01870,2.28398,0.0323640,5858.54,283.464
"2017-01-02 05:55:00 000",427.429,0.937600,2.30527,0.0401035,5874.50,288.453
"2017-01-02 06:05:00 000",427.893,0.927515,2.27345,0.0641659,5878.20,283.407
"2017-01-02 06:15:00 000",427.650,0.972190,2.12969,0.0196384,5815.77,272.047
"2017-01-02 06:25:00 000",427.840,0.911863,2.10296,0.0179689,5811.89,277.462
"2017-01-02 06:35:00 000",428.832,1.11603,2.23809,0.100459,5878.05,289.357
"2017-01-02 06:45:00 000",429.014,0.943753,2.11718,0.0305187,5842.75,258.400
"2017-01-02 06:55:00 000",429.097,0.940011,2.09509,0.00566611,5828.61,274.030
"2017-01-02 07:05:00 000",429.051,0.946929,2.09762,0.00746952,5945.19,290.569
"2017-01-02 07:15:00 000",429.037,0.951387,2.16624,0.0437109,5900.11,289.488
"2017-01-02 07:25:00 000",429.421,0.999618,2.24742,0.0242627,5835.51,304.117
"2017-01-02 07:35:00 000",429.576,1.01600,2.33181,0.0353925,5873.68,296.762
"2017-01-02 07:45:00 000",430.359,1.03284,2.26546,0.0857930,5849.96,301.674
"2017-01-02 07:55:00 000",430.106,0.943441,2.16414,0.0346280,5915.06,280.893
"2017-01-02 08:05:00 000",430.394,0.955855,2.20132,0.0366913,5956.29,292.927
"2017-01-02 08:15:00 000",430.912,0.967834,2.17549,0.0751871,5966.88,284.911
"2017-01-02 08:25:00 000",431.426,1.07667,2.35836,0.101705,5871.91,287.850
"2017-01-02 08:35:00 000",432.779,1.03978,2.33447,0.0951193,5997.94,298.888
"2017-01-02 08:45:00 000",433.749,0.971356,2.17290,0.0260814,6016.53,312.188
"2017-01-02 08:55:00 000",434.064,1.00558,2.23856,0.0485454,6049.73,307.461
"2017-01-02 09:05:00 000",432.983,1.29568,2.26810,0.0563050,6086.45,310.374
"2017-01-02 09:15:00 000",432.251,1.14454,2.30726,0.0313748,6097.21,320.437
"2017-01-02 09:25:00 000",431.693,1.02722,2.28609,0.0471884,6048.67,317.215
"2017-01-02 09:35:00 000",431.597,1.67078,2.26308,0.0608043,6087.11,305.452
"2017-01-02 09:45:00 000",430.505,1.01436,2.28676,0.0572456,6105.93,317.561
"2017-01-02 09:55:00 000",430.844,1.13075,2.23489,0.0368134,6133.77,303.443
"2017-01-02 10:05:00 000",430.062,1.06435,2.16673,0.0299463,6105.25,294.811
"2017-01-02 10:15:00 000",430.416,1.15399,2.18912,0.0407188,6103.99,274.931
"2017-01-02 10:25:00 000",431.000,0.997225,2.24097,0.0585728,6164.60,285.694
"2017-01-02 10:35:00 000",430.335,1.24055,2.24196,0.0598536,6113.98,286.897
"2017-01-02 10:45:00 000",429.471,1.63547,2.15385,0.0315100,6092.11,299.871
"2017-01-02 10:55:00 000",430.311,1.18451,2.20935,0.0605267,6226.34,280.414
"2017-01-02 11:05:00 000",432.061,0.915434,2.16276,0.0305224,6235.01,269.448
"2017-01-02 11:15:00 000",431.608,1.10207,2.24183,0.0468617,6169.59,259.387
"2017-01-02 11:25:00 000",430.496,1.04487,2.27618,0.0604524,6286.70,264.677
"2017-01-02 11:35:00 000",430.422,0.985867,2.27564,0.0864126,6316.10,243.928
"2017-01-02 11:45:00 000",430.314,0.998673,2.38852,0.0478009,6410.99,250.039
"2017-01-02 11:55:00 000",429.957,0.967477,2.36836,0.0636791,6524.40,228.503
"2017-01-02 12:05:00 000",430.154,1.24631,2.25277,0.0595410,6615.46,208.154
"2017-01-02 12:15:00 000",428.953,1.18121,2.22074,0.0303180,6559.36,182.946
"2017-01-02 12:25:00 000",429.900,1.02294,2.20499,0.0433127,6575.27,166.153
"2017-01-02 12:35:00 000",429.138,1.05965,2.27067,0.0235221,6611.89,154.885
"2017-01-02 12:45:00 000",429.602,1.03349,2.20409,0.0335846,6669.19,142.392
"2017-01-02 12:55:00 000",429.857,1.05463,2.21440,0.0300180,6510.76,154.618
"2017-01-02 13:05:00 000",428.843,1.33936,2.21682,0.0476115,6444.77,134.328
"2017-01-02 13:15:00 000",429.028,1.04054,2.25627,0.0406894,6478.51,126.855
"2017-01-02 13:25:00 000",428.803,1.02206,2.26550,0.0377223,6511.49,125.842
"2017-01-02 13:35:00 000",428.346,1.26305,2.25695,0.0307541,6442.47,118.388
"2017-01-02 13:45:00 000",428.675,0.990964,2.27916,0.0260981,6438.11,123.308
"2017-01-02 13:55:00 000",429.892,1.06640,2.19376,0.0405931,6317.30,141.587
"2017-01-02 14:05:00 000",429.465,1.00822,2.14242,0.0347534,6281.51,131.222
"2017-01-02 14:15:00 000",429.708,0.992631,2.33787,0.0694790,6229.45,118.461
"2017-01-02 14:25:00 000",429.104,1.08682,2.31364,0.0685808,6285.58,132.133
"2017-01-02 14:35:00 000",429.778,1.12578,2.33366,0.0550337,6234.86,137.110
"2017-01-02 14:45:00 000",430.054,0.959579,2.27458,0.0817711,6200.80,130.212
"2017-01-02 14:55:00 000",430.186,0.959372,2.17608,0.0249797,6241.60,127.742
"2017-01-02 15:05:00 000",430.685,1.08807,2.31827,0.0610489,6134.00,128.112
"2017-01-02 15:15:00 000",431.244,1.02768,2.35634,0.0741145,6002.13,136.350
"2017-01-02 15:25:00 000",431.468,1.14736,2.28306,0.0481176,5949.32,142.327
"2017-01-02 15:35:00 000",432.201,1.01078,2.17895,0.0693953,5933.60,144.764
"2017-01-02 15:45:00 000",432.312,1.02108,2.43218,0.0786698,5851.60,132.645
"2017-01-02 15:55:00 000",433.146,1.02288,2.32608,0.138815,5740.00,156.493
"2017-01-02 16:05:00 000",432.304,1.05414,2.19880,0.0587930,5517.55,141.783
"2017-01-02 16:15:00 000",432.572,0.992107,2.33014,0.0384712,5573.76,146.990
"2017-01-02 16:25:00 000",431.700,0.998386,2.20212,0.0564843,5611.50,153.240
"2017-01-02 16:35:00 000",432.388,1.00223,2.27380,0.0364698,5637.62,164.197
"2017-01-02 16:45:00 000",433.304,1.08479,2.23112,0.0551459,5680.88,190.735
"2017-01-02 16:55:00 000",432.819,1.06254,2.20613,0.0394817,5765.62,211.724
"2017-01-02 17:05:00 000",433.817,1.24838,2.30865,0.0748035,5793.29,217.375
"2017-01-02 17:15:00 000",433.789,0.927035,2.44072,0.0424348,5880.69,231.736
"2017-01-02 17:25:00 000",433.733,0.966534,2.42224,0.0397499,5814.21,218.734
"2017-01-02 17:35:00 000",433.829,0.985196,2.27865,0.0582492,5882.43,212.270
"2017-01-02 17:45:00 000",433.300,1.11423,2.25198,0.0767362,5813.99,214.717
"2017-01-02 17:55:00 000",433.134,1.02337,2.44028,0.0664400,5883.71,214.704
"2017-01-02 18:05:00 000",432.351,0.970648,2.31263,0.0436505,5903.43,230.876
"2017-01-02 18:15:00 000",431.371,1.17543,2.18182,0.0639975,5930.22,240.751
"2017-01-02 18:25:00 000",432.043,1.06324,2.16162,0.0473989,5937.89,242.889
"2017-01-02 18:35:00 000",432.868,1.00964,2.38521,0.171068,5942.49,264.553
"2017-01-02 18:45:00 000",432.510,0.954313,2.30135,0.0841912,5927.01,269.189
"2017-01-02 18:55:00 000",432.194,0.953705,2.15739,0.0229424,5938.29,271.674
"2017-01-02 19:05:00 000",432.560,1.01541,2.14375,0.0161827,5945.51,260.348
"2017-01-02 19:15:00 000",433.552,0.942452,2.25572,0.107657,5959.61,244.787
"2017-01-02 19:25:00 000",433.335,1.01796,2.41651,0.0854907,6088.39,249.486
"2017-01-02 19:35:00 000",433.462,0.975572,2.14754,0.0252242,6010.27,236.405
"2017-01-02 19:45:00 000",433.903,0.989818,2.18418,0.0766094,6059.91,241.694
"2017-01-02 19:55:00 000",433.486,0.925488,2.35487,0.0407950,6189.86,234.395
"2017-01-02 20:05:00 000",433.577,0.916019,2.38361,0.0412934,6178.07,231.247
"2017-01-02 20:15:00 000",433.263,0.933492,2.35276,0.0525282,6205.09,229.532
"2017-01-02 20:25:00 000",433.250,0.936752,2.30607,0.0467651,6245.77,237.382
"2017-01-02 20:35:00 000",434.206,1.04170,2.27720,0.0429900,6284.75,217.678
"2017-01-02 20:45:00 000",433.807,1.35437,2.34284,0.0560398,6326.29,209.834
"2017-01-02 20:55:00 000",431.968,1.14646,2.46968,0.128226,6372.15,205.051
"2017-01-02 21:05:00 000",431.859,0.987199,2.16597,0.0293506,6312.12,195.909
"2017-01-02 21:15:00 000",432.971,0.967957,2.18938,0.0269915,6314.77,194.159
"2017-01-02 21:25:00 000",432.803,0.958532,2.17838,0.0640057,6298.99,178.855
"2017-01-02 21:35:00 000",431.903,0.992636,2.42558,0.0534592,6312.92,198.263
"2017-01-02 21:45:00 000",430.262,1.08799,2.15591,0.0722802,6257.04,193.911
"2017-01-02 21:55:00 000",429.836,1.08420,2.14527,0.0376311,6272.08,197.114
"2017-01-02 22:05:00 000",430.079,1.25401,2.24357,0.0653023,6317.25,204.548
"2017-01-02 22:15:00 000",430.960,1.04165,2.18929,0.0711009,6220.13,198.695
"2017-01-02 22:25:00 000",430.947,0.998906,2.17468,0.0432964,6220.35,213.098
"2017-01-02 22:35:00 000",431.157,1.01501,2.23895,0.0594116,6210.96,216.230
"2017-01-02 22:45:00 000",430.370,0.917649,2.29879,0.0772815,6202.17,218.720
"2017-01-02 22:55:00 000",429.716,1.05124,2.34661,0.0382879,6195.44,229.153
"2017-01-02 23:05:00 000",429.134,1.00278,2.31415,0.0417655,6241.18,249.971
"2017-01-02 23:15:00 000",428.458,1.01639,2.21642,0.0488726,6185.21,233.703
"2017-01-02 23:25:00 000",427.574,1.14059,2.17173,0.0310416,6234.42,231.074
"2017-01-02 23:35:00 000",425.962,1.08659,2.19405,0.0535588,6195.66,229.492
"2017-01-02 23:45:00 000",426.193,0.975453,2.09516,0.0173109,6259.52,232.683
"2017-01-02 23:55:00 000",426.311,0.983595,2.08962,0.0114751,6258.25,250.296
"2017-01-03 00:05:00 000",427.405,0.955835,2.12172,0.0342755,6223.22,243.490
"2017-01-03 00:15:00 000",426.518,1.14238,2.18711,0.0421155,6215.05,249.515
"2017-01-03 00:25:00 000",425.859,1.01784,2.12825,0.0241229,6265.09,238.369
"2017-01-03 00:35:00 000",425.598,0.928641,2.21278,0.0585545,6237.38,241.765
"2017-01-03 00:45:00 000",425.490,1.00182,2.24385,0.0517799,6210.20,251.538
"2017-01-03 00:55:00 000",425.338,0.989549,2.26073,0.0398862,6170.48,245.832
"2017-01-03 01:05:00 000",425.466,0.905468,2.21669,0.0863435,6225.59,254.870
"2017-01-03 01:15:00 000",425.237,0.983763,2.07249,0.00888772,6297.87,256.307
"2017-01-03 01:25:00 000",424.443,0.942179,2.07939,0.0146365,6277.51,252.339
"2017-01-03 01:35:00 000",424.344,0.999874,2.12065,0.0364159,6254.55,250.507
"2017-01-03 01:45:00 000",424.518,0.945342,2.12855,0.0284716,6208.68,263.053
"2017-01-03 01:55:00 000",423.975,1.01293,2.24605,0.0662078,6204.78,281.855
"2017-01-03 02:05:00 000",423.066,1.02841,2.31896,0.0403108,6131.02,272.411
"2017-01-03 02:15:00 000",422.510,0.964929,2.25866,0.0433681,6255.02,270.122
"2017-01-03 02:25:00 000",422.770,0.950684,2.25886,0.0443656,6228.53,265.555
"2017-01-03 02:35:00 000",422.527,0.911582,2.18958,0.0343545,6163.33,275.492